Location: Campestrin
(46.4667°N, 11.7167°E)
Time: 09:29:45
(UTC+00:00)

Cosmos 2360 Rocket - Pass Details

Date: 18 April 2021
Orbit: 833 x 845 km, 71.0° (Epoch: 06 May)

Event Time Altitude Azimuth Distance (km) Brightness Sun altitude
Rises 18:50:49 0° 329° (NNW) 3,413 6.4 -8.2°
Reaches altitude 10° 18:53:20 10° 324° (NW) 2,472 5.7 -8.5°
Maximum altitude 18:58:47 50° 251° (WSW) 1,068 3.1 -9.4°
Drops below altitude 10° 19:04:11 10° 177° (S) 2,448 4.3 -10.2°
Sets 19:06:40 0° 172° (S) 3,376 5.0 -10.6°
